| time (UTC) | temp F | wind direction | speed knots | gust knots | rain 1hr in | rain 24hr in | rain mn in | humidity % | barometer mb |
| 20260906221014 | 87 | 348 | 6.1 | 7.8 | 0.00 | 0.00 | 0.00 | 36 | 1013.5 |
| 20260906220014 | 87 | 322 | 3.5 | 8.7 | 0.00 | 0.00 | 0.00 | 37 | 1013.9 |
| 20260906215014 | 87 | 51 | 3.5 | 8.7 | 0.00 | 0.00 | 0.00 | 37 | 1013.9 |
| 20260906214014 | 86 | 349 | 7.0 | 8.7 | 0.00 | 0.00 | 0.00 | 37 | 1013.9 |
| 20260906213014 | 86 | 23 | 4.3 | 9.6 | 0.00 | 0.00 | 0.00 | 37 | 1014.2 |
| 20260906211014 | 87 | 14 | 5.2 | 8.7 | 0.00 | 0.00 | 0.00 | 35 | 1014.2 |
| 20260906205014 | 85 | 330 | 2.6 | 7.8 | 0.00 | 0.00 | 0.00 | 37 | 1014.6 |
| 20260906203014 | 85 | 31 | 5.2 | 8.7 | 0.00 | 0.00 | 0.00 | 37 | 1014.9 |
| 20260906202014 | 85 | 304 | 1.7 | 9.6 | 0.00 | 0.00 | 0.00 | 36 | 1014.9 |
| 20260906200014 | 84 | 50 | 0.9 | 7.8 | 0.00 | 0.00 | 0.00 | 39 | 1014.9 |
| 20260906195014 | 84 | 23 | 1.7 | 10.4 | 0.00 | 0.00 | 0.00 | 39 | 1015.2 |
| 20260906194014 | 84 | 49 | 2.6 | 7.8 | 0.00 | 0.00 | 0.00 | 40 | 1015.2 |
| 20260906192113 | 82 | 41 | 3.5 | 7.8 | 0.00 | 0.00 | 0.00 | 38 | 1015.2 |
| 20260906191014 | 82 | 37 | 5.2 | 7.0 | 0.00 | 0.00 | 0.00 | 44 | 1015.6 |
| 20260906190014 | 81 | 91 | 7.0 | 7.8 | 0.00 | 0.00 | 0.00 | 43 | 1015.6 |
| 20260906185013 | 81 | 67 | 4.3 | 8.7 | 0.00 | 0.00 | 0.00 | 46 | 1015.9 |
| 20260906184014 | 81 | 29 | 1.7 | 6.1 | 0.00 | 0.00 | 0.00 | 49 | 1016.3 |
| 20260906183014 | 79 | 290 | 0.0 | 7.0 | 0.00 | 0.00 | 0.00 | 48 | 1016.3 |
| 20260906182014 | 79 | 19 | 7.0 | 6.1 | 0.00 | 0.00 | 0.00 | 49 | 1016.3 |
| 20260906181014 | 79 | 56 | 2.6 | 6.1 | 0.00 | 0.00 | 0.00 | 51 | 1016.6 |
| 20260906180014 | 78 | 11 | 3.5 | 6.1 | 0.00 | 0.00 | 0.00 | 52 | 1016.6 |
| 20260906175014 | 77 | 18 | 4.3 | 7.8 | 0.00 | 0.00 | 0.00 | 54 | 1016.9 |
| 20260906173014 | 76 | 144 | 0.9 | 5.2 | 0.00 | 0.00 | 0.00 | 57 | 1017.3 |
| 20260906172013 | 76 | 62 | 0.0 | 5.2 | 0.00 | 0.00 | 0.00 | 59 | 1017.3 |
| 20260906170013 | 73 | 42 | 2.6 | 4.3 | 0.00 | 0.00 | 0.00 | 63 | 1017.6 |
| 20260906165014 | 73 | 306 | 3.5 | 7.0 | 0.00 | 0.00 | 0.00 | 64 | 1017.9 |
| 20260906164013 | 72 | 17 | 2.6 | 5.2 | 0.00 | 0.00 | 0.00 | 65 | 1017.9 |
| 20260906163013 | 71 | 43 | 2.6 | 5.2 | 0.00 | 0.00 | 0.00 | 66 | 1017.9 |
| 20260906162014 | 71 | 69 | 1.7 | 7.0 | 0.00 | 0.00 | 0.00 | 66 | 1017.9 |
| 20260906161013 | 71 | 17 | 2.6 | 7.0 | 0.00 | 0.00 | 0.00 | 67 | 1017.6 |
| 20260906160013 | 69 | 11 | 0.9 | 6.1 | 0.00 | 0.00 | 0.00 | 70 | 1017.6 |
| 20260906155013 | 69 | 44 | 0.9 | 5.2 | 0.00 | 0.00 | 0.00 | 71 | 1017.6 |
| 20260906154013 | 69 | 55 | 4.3 | 5.2 | 0.00 | 0.00 | 0.00 | 70 | 1017.9 |
| 20260906153013 | 68 | 32 | 3.5 | 5.2 | 0.00 | 0.00 | 0.00 | 72 | 1017.9 |
| 20260906152013 | 68 | 41 | 1.7 | 6.1 | 0.00 | 0.00 | 0.00 | 73 | 1017.9 |
| 20260906151014 | 67 | 0 | 3.5 | 6.1 | 0.00 | 0.00 | 0.00 | 74 | 1017.9 |
| 20260906145014 | 66 | 13 | 2.6 | 7.0 | 0.00 | 0.00 | 0.00 | 77 | 1017.9 |
| 20260906144014 | 66 | 322 | 1.7 | 7.0 | 0.00 | 0.00 | 0.00 | 77 | 1017.9 |
| 20260906143013 | 65 | 1 | 1.7 | 6.1 | 0.00 | 0.00 | 0.00 | 76 | 1017.9 |
| 20260906142014 | 65 | 277 | 1.7 | 6.1 | 0.00 | 0.00 | 0.00 | 77 | 1017.9 |
| 20260906141013 | 65 | 343 | 3.5 | 5.2 | 0.00 | 0.00 | 0.00 | 75 | 1017.9 |
| 20260906140014 | 64 | 12 | 2.6 | 6.1 | 0.00 | 0.00 | 0.00 | 75 | 1017.9 |
| 20260906135013 | 63 | 300 | 3.5 | 5.2 | 0.00 | 0.00 | 0.00 | 75 | 1017.9 |
| 20260906134013 | 63 | 312 | 1.7 | 4.3 | 0.00 | 0.00 | 0.00 | 76 | 1017.6 |
| 20260906132013 | 62 | 284 | 2.6 | 3.5 | 0.00 | 0.00 | 0.00 | 76 | 1017.6 |
| 20260906131013 | 61 | 277 | 1.7 | 4.3 | 0.00 | 0.00 | 0.00 | 76 | 1017.6 |
| 20260906130013 | 62 | 277 | 3.5 | 4.3 | 0.00 | 0.00 | 0.00 | 76 | 1017.6 |
| 20260906125013 | 61 | 282 | 2.6 | 3.5 | 0.00 | 0.00 | 0.00 | 76 | 1017.3 |
| 20260906124014 | 61 | 271 | 1.7 | 2.6 | 0.00 | 0.00 | 0.00 | 76 | 1017.3 |
| 20260906122013 | 61 | 213 | 1.7 | 2.6 | 0.00 | 0.00 | 0.00 | 76 | 1017.3 |
| 20260906121013 | 62 | 0 | 0.0 | 2.6 | 0.00 | 0.00 | 0.00 | 76 | 1017.3 |
| 20260906115013 | 62 | 269 | 3.5 | 3.5 | 0.00 | 0.00 | 0.00 | 76 | 1017.3 |
| 20260906114013 | 62 | 295 | 1.7 | 2.6 | 0.00 | 0.00 | 0.00 | 77 | 1017.3 |
| 20260906113013 | 62 | 258 | 1.7 | 2.6 | 0.00 | 0.00 | 0.00 | 75 | 1017.3 |
| 20260906112013 | 62 | 300 | 1.7 | 2.6 | 0.00 | 0.00 | 0.00 | 76 | 1017.3 |
| 20260906111013 | 62 | 304 | 2.6 | 3.5 | 0.00 | 0.00 | 0.00 | 76 | 1017.3 |
| 20260906110013 | 62 | 262 | 2.6 | 4.3 | 0.00 | 0.00 | 0.00 | 74 | 1017.3 |
| 20260906105013 | 63 | 277 | 4.3 | 4.3 | 0.00 | 0.00 | 0.00 | 72 | 1017.3 |
| 20260906104013 | 64 | 276 | 3.5 | 3.5 | 0.00 | 0.00 | 0.00 | 72 | 1017.3 |
| 20260906103013 | 64 | 297 | 2.6 | 2.6 | 0.00 | 0.00 | 0.00 | 74 | 1016.9 |
| 20260906102013 | 64 | 271 | 1.7 | 2.6 | 0.00 | 0.00 | 0.00 | 71 | 1017.3 |
| 20260906101013 | 65 | 305 | 1.7 | 2.6 | 0.00 | 0.00 | 0.00 | 71 | 1016.9 |
| 20260906100013 | 65 | 354 | 1.7 | 2.6 | 0.00 | 0.00 | 0.00 | 72 | 1016.9 |
| 20260906095013 | 65 | 358 | 2.6 | 2.6 | 0.00 | 0.00 | 0.00 | 72 | 1016.9 |
| 20260906094013 | 65 | 39 | 0.9 | 1.7 | 0.00 | 0.00 | 0.00 | 71 | 1017.3 |
| 20260906093013 | 66 | 132 | 0.9 | 2.6 | 0.00 | 0.00 | 0.00 | 70 | 1017.3 |
| 20260906092013 | 66 | 69 | 1.7 | 3.5 | 0.00 | 0.00 | 0.00 | 69 | 1016.9 |
| 20260906091013 | 66 | 0 | 0.0 | 3.5 | 0.00 | 0.00 | 0.00 | 67 | 1016.6 |
| 20260906090013 | 66 | 37 | 2.6 | 3.5 | 0.00 | 0.00 | 0.00 | 65 | 1016.6 |
| 20260906085013 | 67 | 36 | 0.9 | 4.3 | 0.00 | 0.00 | 0.00 | 63 | 1016.6 |
| 20260906084013 | 67 | 5 | 1.7 | 6.1 | 0.00 | 0.00 | 0.00 | 62 | 1016.3 |
| 20260906082013 | 67 | 30 | 1.7 | 7.0 | 0.00 | 0.00 | 0.00 | 59 | 1016.3 |
| 20260906081013 | 68 | 27 | 2.6 | 6.1 | 0.00 | 0.00 | 0.00 | 56 | 1016.6 |
| 20260906080013 | 69 | 71 | 2.6 | 6.1 | 0.00 | 0.00 | 0.00 | 53 | 1016.6 |
| 20260906075013 | 70 | 52 | 3.5 | 6.1 | 0.00 | 0.00 | 0.00 | 49 | 1016.6 |
| 20260906074013 | 71 | 325 | 3.5 | 5.2 | 0.00 | 0.00 | 0.00 | 47 | 1016.3 |
| 20260906073013 | 71 | 351 | 3.5 | 6.1 | 0.00 | 0.00 | 0.00 | 47 | 1016.3 |
| 20260906072013 | 72 | 319 | 2.6 | 5.2 | 0.00 | 0.00 | 0.00 | 46 | 1016.3 |
| 20260906071013 | 72 | 300 | 2.6 | 2.6 | 0.00 | 0.00 | 0.00 | 45 | 1016.6 |
| 20260906070013 | 72 | 356 | 0.9 | 4.3 | 0.00 | 0.00 | 0.00 | 45 | 1016.6 |
| 20260906065013 | 71 | 297 | 1.7 | 4.3 | 0.00 | 0.00 | 0.00 | 44 | 1016.6 |
| 20260906062013 | 74 | 312 | 1.7 | 3.5 | 0.00 | 0.00 | 0.00 | 41 | 1016.3 |
| 20260906061013 | 74 | 344 | 1.7 | 5.2 | 0.00 | 0.00 | 0.00 | 40 | 1016.3 |
| 20260906060013 | 74 | 357 | 3.5 | 4.3 | 0.00 | 0.00 | 0.00 | 40 | 1016.3 |
| 20260906052013 | 73 | 165 | 1.7 | 9.6 | 0.00 | 0.00 | 0.00 | 40 | 1016.9 |
| 20260906050013 | 73 | 207 | 2.6 | 3.5 | 0.00 | 0.00 | 0.00 | 43 | 1016.6 |
| 20260906043013 | 74 | 273 | 1.7 | 3.5 | 0.00 | 0.00 | 0.00 | 40 | 1016.3 |
| 20260906041013 | 75 | 100 | 2.6 | 4.3 | 0.00 | 0.00 | 0.00 | 37 | 1015.9 |
| 20260906040013 | 76 | 78 | 3.5 | 6.1 | 0.00 | 0.00 | 0.00 | 37 | 1015.9 |
| 20260906035013 | 76 | 98 | 1.7 | 3.5 | 0.00 | 0.00 | 0.00 | 36 | 1015.6 |
| 20260906034013 | 77 | 62 | 1.7 | 4.3 | 0.00 | 0.00 | 0.00 | 36 | 1015.6 |
| 20260906033013 | 77 | 52 | 3.5 | 5.2 | 0.00 | 0.00 | 0.00 | 35 | 1015.6 |
| 20260906031013 | 78 | 300 | 2.6 | 3.5 | 0.00 | 0.00 | 0.00 | 35 | 1015.2 |
| 20260906030013 | 79 | 33 | 3.5 | 7.0 | 0.00 | 0.00 | 0.00 | 34 | 1015.2 |
| 20260906025013 | 79 | 44 | 3.5 | 7.0 | 0.00 | 0.00 | 0.00 | 33 | 1014.9 |
| 20260906024013 | 80 | 50 | 4.3 | 4.3 | 0.00 | 0.00 | 0.00 | 33 | 1014.9 |
| 20260906023012 | 80 | 50 | 2.6 | 3.5 | 0.00 | 0.00 | 0.00 | 32 | 1014.9 |
| 20260906022013 | 80 | 37 | 2.6 | 5.2 | 0.00 | 0.00 | 0.00 | 32 | 1014.9 |
| 20260906021013 | 81 | 354 | 1.7 | 3.5 | 0.00 | 0.00 | 0.00 | 32 | 1014.9 |
| 20260906020012 | 81 | 332 | 1.7 | 2.6 | 0.00 | 0.00 | 0.00 | 33 | 1014.9 |
| 20260906015012 | 81 | 15 | 0.9 | 3.5 | 0.00 | 0.00 | 0.00 | 32 | 1014.9 |
| 20260906014012 | 82 | 74 | 0.9 | 5.2 | 0.00 | 0.00 | 0.00 | 32 | 1014.9 |
| 20260906013013 | 82 | 306 | 2.6 | 7.8 | 0.00 | 0.00 | 0.00 | 31 | 1014.6 |
| 20260906012012 | 83 | 320 | 6.1 | 9.6 | 0.00 | 0.00 | 0.00 | 32 | 1014.6 |
| 20260906011013 | 84 | 260 | 2.6 | 8.7 | 0.00 | 0.00 | 0.00 | 30 | 1014.6 |
| 20260906010013 | 85 | 307 | 4.3 | 8.7 | 0.00 | 0.00 | 0.00 | 29 | 1014.6 |
| 20260906005013 | 85 | 300 | 6.1 | 7.8 | 0.00 | 0.00 | 0.00 | 28 | 1014.6 |
| 20260906004012 | 85 | 297 | 2.6 | 8.7 | 0.00 | 0.00 | 0.00 | 28 | 1014.6 |
| 20260906003012 | 86 | 303 | 5.2 | 9.6 | 0.00 | 0.00 | 0.00 | 28 | 1014.6 |
| 20260906002012 | 87 | 299 | 5.2 | 10.4 | 0.00 | 0.00 | 0.00 | 27 | 1014.6 |
| 20260906001012 | 88 | 299 | 7.0 | 10.4 | 0.00 | 0.00 | 0.00 | 28 | 1014.6 |
| 20260906000013 | 88 | 297 | 3.5 | 6.1 | 0.00 | 0.00 | 0.00 | 27 | 1014.6 |
| 20260905234012 | 90 | 326 | 2.6 | 6.1 | 0.00 | 0.00 | 0.00 | 24 | 1014.6 |
| 20260905232013 | 90 | 327 | 1.7 | 6.1 | 0.00 | 0.00 | 0.00 | 22 | 1014.2 |
| 20260905231012 | 90 | 39 | 1.7 | 6.1 | 0.00 | 0.00 | 0.00 | 22 | 1014.2 |
| 20260905230013 | 91 | 309 | 1.7 | 7.0 | 0.00 | 0.00 | 0.00 | 22 | 1014.2 |
| 20260905225013 | 91 | 10 | 1.7 | 7.8 | 0.00 | 0.00 | 0.00 | 22 | 1014.2 |
| 20260905223012 | 91 | 63 | 2.6 | 9.6 | 0.00 | 0.00 | 0.00 | 22 | 1014.2 |
| 20260905222013 | 91 | 342 | 1.7 | 8.7 | 0.00 | 0.00 | 0.00 | 22 | 1014.2 |